This is the latest recevied weather packets stored in our database for station/object KE9ADS. If no packets are shown the sender has not sent any weather packets the latest 10 day(s).
| Time | Temp. | Humidity | Pressure | Rain* | Wind** | Luminosity | Snow |
|---|---|---|---|---|---|---|---|
| 1777919720 | 27.22° C | 33% | 1003 hPa | 0 mm | - | 789 W/m² | - |
| 1777919121 | 27.22° C | 33% | 1003 hPa | 0 mm | - | 788 W/m² | - |
| 1777918515 | 27.22° C | 33% | 1003.1 hPa | 0 mm | - | 787 W/m² | - |
| 1777917912 | 26.67° C | 35% | 1002.9 hPa | 0 mm | - | 795 W/m² | - |
| 1777917307 | 26.67° C | 35% | 1002.9 hPa | 0 mm | - | 783 W/m² | - |
| 1777916702 | 26.11° C | 37% | 1003 hPa | 0 mm | - | 804 W/m² | - |
| 1777916101 | 26.67° C | 38% | 1003.3 hPa | 0 mm | - | 803 W/m² | - |
| 1777915500 | 26.67° C | 36% | 1003.3 hPa | 0 mm | - | 806 W/m² | - |
| 1777914900 | 25.56° C | 39% | 1003.3 hPa | 0 mm | - | 795 W/m² | - |
| 1777914299 | 25.56° C | 41% | 1003.6 hPa | 0 mm | - | 784 W/m² | - |
| 1777913698 | 26.11° C | 41% | 1003.5 hPa | 0 mm | - | 776 W/m² | - |
| 1777913097 | 25° C | 41% | 1003.6 hPa | 0 mm | - | 760 W/m² | - |
| 1777912495 | 25° C | 41% | 1003.8 hPa | 0 mm | - | 760 W/m² | - |
| 1777911894 | 25° C | 40% | 1003.7 hPa | 0 mm | - | 741 W/m² | - |
| 1777911292 | 25° C | 40% | 1003.9 hPa | 0 mm | - | 722 W/m² | - |
| 1777910688 | 23.89° C | 43% | 1004.1 hPa | 0 mm | - | 702 W/m² | - |
| 1777910086 | 23.33° C | 42% | 1004.2 hPa | 0 mm | - | 686 W/m² | - |
| 1777909486 | 23.89° C | 42% | 1004.4 hPa | 0 mm | - | 662 W/m² | - |
| 1777908882 | 23.33° C | 43% | 1004.4 hPa | 0 mm | - | 645 W/m² | - |
| 1777908282 | 23.33° C | 43% | 1004.5 hPa | 0 mm | - | 618 W/m² | - |
| 1777907680 | 23.33° C | 43% | 1004.6 hPa | 0 mm | - | 596 W/m² | - |
| 1777907077 | 22.78° C | 41% | 1004.8 hPa | 0 mm | - | 573 W/m² | - |
| 1777906478 | 21.67° C | 43% | 1004.9 hPa | 0 mm | - | 549 W/m² | - |
| 1777905877 | 21.67° C | 45% | 1004.8 hPa | 0 mm | - | 515 W/m² | - |
| 1777905276 | 21.67° C | 44% | 1004.9 hPa | 0 mm | - | 494 W/m² | - |
* Rain latest hour (hover to see other rain measurements)
** Current wind speed in m/s (hover to see current wind gust speed)